Time,TemperatureF,DewpointF,PressureIn,WindDirection,WindDirectionDegrees,WindSpeedMPH,WindSpeedGustMPH,Humidity,HourlyPrecipIn,Conditions,Clouds,dailyrainin,SoftwareType,DateUTC
2013-04-20 00:01:00,61.9,60.4,29.66,SSW,201,2.9,2.9,95,0.03,,,0.03,meteobridge,2013-04-20 04:01:00,
2013-04-20 00:02:00,61.9,60.4,29.66,SSW,201,0.0,2.9,95,0.03,,,0.03,meteobridge,2013-04-20 04:02:00,
2013-04-20 00:05:00,61.9,60.4,29.66,SSW,201,0.0,0.0,95,0.03,,,0.03,meteobridge,2013-04-20 04:05:00,
2013-04-20 00:11:00,61.9,60.8,29.65,SSW,201,0.0,0.0,96,0.04,,,0.04,meteobridge,2013-04-20 04:11:00,
2013-04-20 00:12:00,61.9,60.8,29.65,SSW,201,0.0,0.0,96,0.04,,,0.04,meteobridge,2013-04-20 04:12:00,
2013-04-20 00:17:00,61.7,60.6,29.65,SSW,201,0.0,0.9,96,0.02,,,0.04,meteobridge,2013-04-20 04:17:00,
2013-04-20 00:23:00,61.5,60.4,29.66,SSW,201,0.0,0.0,96,0.03,,,0.05,meteobridge,2013-04-20 04:23:00,
2013-04-20 00:28:00,61.5,60.4,29.67,SSW,201,0.0,0.0,96,0.03,,,0.05,meteobridge,2013-04-20 04:28:00,
2013-04-20 00:33:00,61.5,60.4,29.67,SSW,201,0.0,0.0,96,0.03,,,0.05,meteobridge,2013-04-20 04:33:00,
2013-04-20 00:38:00,61.5,60.4,29.69,NW,318,2.0,4.9,96,0.04,,,0.06,meteobridge,2013-04-20 04:38:00,
2013-04-20 00:44:00,59.7,55.6,29.71,South,185,4.0,6.9,86,0.05,,,0.07,meteobridge,2013-04-20 04:44:00,
2013-04-20 00:49:00,57.7,52.9,29.71,WNW,290,2.0,6.9,84,0.07,,,0.09,meteobridge,2013-04-20 04:49:00,
2013-04-20 00:54:00,55.9,51.8,29.70,WNW,284,2.0,6.0,86,0.06,,,0.09,meteobridge,2013-04-20 04:54:00,
2013-04-20 00:59:00,54.9,51.4,29.70,SSW,199,2.0,2.9,88,0.06,,,0.09,meteobridge,2013-04-20 04:59:00,
2013-04-20 01:05:00,54.1,51.3,29.70,WNW,297,0.0,2.0,90,0.07,,,0.10,meteobridge,2013-04-20 05:05:00,
2013-04-20 01:10:00,53.8,51.4,29.70,WNW,296,2.0,2.9,92,0.06,,,0.10,meteobridge,2013-04-20 05:10:00,
2013-04-20 01:15:00,53.4,51.4,29.70,NNW,331,0.0,2.0,93,0.06,,,0.10,meteobridge,2013-04-20 05:15:00,
2013-04-20 01:20:00,53.2,51.3,29.69,WNW,286,0.0,2.0,93,0.05,,,0.10,meteobridge,2013-04-20 05:20:00,
2013-04-20 01:26:00,53.1,51.1,29.69,WSW,238,0.0,2.9,93,0.05,,,0.10,meteobridge,2013-04-20 05:26:00,
2013-04-20 01:31:00,52.9,50.9,29.70,WSW,249,0.9,2.0,93,0.05,,,0.10,meteobridge,2013-04-20 05:31:00,
2013-04-20 01:37:00,52.9,50.9,29.70,West,280,0.9,2.9,93,0.04,,,0.10,meteobridge,2013-04-20 05:37:00,
2013-04-20 01:42:00,52.5,50.2,29.70,NNW,330,0.9,4.0,92,0.03,,,0.10,meteobridge,2013-04-20 05:42:00,
2013-04-20 01:47:00,52.3,50.4,29.69,WSW,237,0.0,2.0,93,0.01,,,0.10,meteobridge,2013-04-20 05:47:00,
2013-04-20 01:52:00,52.3,50.4,29.69,WNW,293,2.0,2.0,93,0.01,,,0.10,meteobridge,2013-04-20 05:52:00,
2013-04-20 01:58:00,52.2,50.2,29.68,NW,306,0.0,2.9,93,0.01,,,0.10,meteobridge,2013-04-20 05:58:00,
2013-04-20 02:03:00,52.2,50.5,29.69,NW,308,0.9,0.9,94,0.00,,,0.10,meteobridge,2013-04-20 06:03:00,
2013-04-20 02:08:00,52.0,50.4,29.69,WNW,298,0.0,2.9,94,0.00,,,0.10,meteobridge,2013-04-20 06:08:00,
2013-04-20 02:13:00,52.0,50.4,29.70,NW,319,0.9,2.0,94,0.00,,,0.10,meteobridge,2013-04-20 06:13:00,
2013-04-20 02:19:00,52.0,50.5,29.71,West,275,0.9,2.9,95,0.01,,,0.11,meteobridge,2013-04-20 06:19:00,
2013-04-20 02:24:00,52.0,50.5,29.70,SW,229,2.0,2.0,95,0.01,,,0.11,meteobridge,2013-04-20 06:24:00,
2013-04-20 02:29:00,52.0,50.5,29.69,WSW,256,0.0,0.9,95,0.01,,,0.11,meteobridge,2013-04-20 06:29:00,
2013-04-20 02:35:00,52.0,50.4,29.68,West,273,0.0,0.9,94,0.01,,,0.11,meteobridge,2013-04-20 06:35:00,
2013-04-20 02:40:00,51.8,50.2,29.68,West,272,0.0,0.9,94,0.01,,,0.11,meteobridge,2013-04-20 06:40:00,
2013-04-20 02:45:00,51.6,50.0,29.67,West,269,0.0,0.0,94,0.01,,,0.11,meteobridge,2013-04-20 06:45:00,
2013-04-20 02:51:00,51.6,50.0,29.67,West,269,0.0,0.0,94,0.02,,,0.12,meteobridge,2013-04-20 06:51:00,
2013-04-20 02:56:00,51.4,50.0,29.67,West,269,0.0,0.0,95,0.02,,,0.12,meteobridge,2013-04-20 06:56:00,
2013-04-20 03:01:00,51.4,50.0,29.66,West,269,0.0,0.9,95,0.02,,,0.12,meteobridge,2013-04-20 07:01:00,
2013-04-20 03:06:00,51.4,50.0,29.66,West,269,0.0,0.0,95,0.02,,,0.12,meteobridge,2013-04-20 07:06:00,
2013-04-20 03:12:00,51.4,50.4,29.67,West,281,0.9,0.9,96,0.02,,,0.12,meteobridge,2013-04-20 07:12:00,
2013-04-20 03:18:00,51.4,50.4,29.69,West,281,0.0,0.0,96,0.03,,,0.14,meteobridge,2013-04-20 07:18:00,
2013-04-20 03:23:00,51.4,50.4,29.71,WNW,295,0.0,2.0,96,0.04,,,0.15,meteobridge,2013-04-20 07:23:00,
2013-04-20 03:28:00,51.3,50.2,29.72,WNW,294,0.0,2.0,96,0.05,,,0.16,meteobridge,2013-04-20 07:28:00,
2013-04-20 03:34:00,51.3,50.2,29.71,WNW,292,0.0,2.9,96,0.06,,,0.17,meteobridge,2013-04-20 07:34:00,
2013-04-20 03:39:00,51.1,50.0,29.71,NW,309,0.0,2.0,96,0.07,,,0.18,meteobridge,2013-04-20 07:39:00,
2013-04-20 03:44:00,51.1,50.0,29.70,NW,309,0.0,0.0,96,0.09,,,0.20,meteobridge,2013-04-20 07:44:00,
2013-04-20 03:50:00,50.9,49.8,29.70,NW,309,0.0,0.9,96,0.09,,,0.21,meteobridge,2013-04-20 07:50:00,
2013-04-20 03:55:00,50.7,49.6,29.71,NNW,327,0.9,2.0,96,0.09,,,0.21,meteobridge,2013-04-20 07:55:00,
2013-04-20 04:00:00,50.5,49.5,29.70,NNW,348,0.0,2.9,96,0.10,,,0.22,meteobridge,2013-04-20 08:00:00,
2013-04-20 04:05:00,50.5,49.5,29.70,NE,36,0.0,2.9,96,0.10,,,0.22,meteobridge,2013-04-20 08:05:00,
2013-04-20 04:10:00,50.2,48.7,29.70,NE,34,2.0,2.0,95,0.10,,,0.22,meteobridge,2013-04-20 08:10:00,
2013-04-20 04:16:00,49.6,48.0,29.71,NE,34,0.0,2.0,94,0.09,,,0.22,meteobridge,2013-04-20 08:16:00,
2013-04-20 04:21:00,49.1,47.5,29.73,North,355,0.0,0.0,94,0.07,,,0.22,meteobridge,2013-04-20 08:21:00,
2013-04-20 04:26:00,48.7,47.1,29.73,NW,322,2.9,4.0,94,0.07,,,0.23,meteobridge,2013-04-20 08:26:00,
2013-04-20 04:31:00,48.0,45.9,29.73,NNE,18,0.9,2.9,92,0.07,,,0.24,meteobridge,2013-04-20 08:31:00,
2013-04-20 04:37:00,47.5,45.5,29.74,North,350,0.0,0.9,93,0.06,,,0.24,meteobridge,2013-04-20 08:37:00,
2013-04-20 04:42:00,46.9,44.8,29.75,NW,318,2.0,2.0,92,0.05,,,0.24,meteobridge,2013-04-20 08:42:00,
2013-04-20 04:47:00,46.2,44.2,29.75,NNW,344,0.0,2.0,93,0.04,,,0.24,meteobridge,2013-04-20 08:47:00,
2013-04-20 04:52:00,45.9,43.9,29.75,North,355,2.0,2.9,93,0.04,,,0.25,meteobridge,2013-04-20 08:52:00,
2013-04-20 04:58:00,45.3,43.3,29.76,NW,309,0.0,2.0,93,0.03,,,0.25,meteobridge,2013-04-20 08:58:00,
2013-04-20 05:04:00,45.1,43.5,29.76,NE,38,0.0,0.0,94,0.03,,,0.25,meteobridge,2013-04-20 09:04:00,
2013-04-20 05:09:00,45.0,43.7,29.76,North,5,0.9,0.9,95,0.03,,,0.25,meteobridge,2013-04-20 09:09:00,
2013-04-20 05:14:00,44.8,43.5,29.76,WNW,292,0.0,0.9,95,0.03,,,0.25,meteobridge,2013-04-20 09:14:00,
2013-04-20 05:19:00,44.8,43.5,29.76,WNW,292,0.0,0.0,95,0.03,,,0.25,meteobridge,2013-04-20 09:19:00,
2013-04-20 05:24:00,44.6,43.3,29.76,NNW,336,0.0,0.0,95,0.02,,,0.25,meteobridge,2013-04-20 09:24:00,
2013-04-20 05:29:00,44.4,43.2,29.77,NNW,336,0.0,0.0,95,0.01,,,0.25,meteobridge,2013-04-20 09:29:00,
2013-04-20 05:35:00,44.2,43.2,29.78,NNW,336,0.0,0.0,96,0.01,,,0.25,meteobridge,2013-04-20 09:35:00,
2013-04-20 05:40:00,44.2,43.2,29.79,NNW,336,0.0,0.0,96,0.01,,,0.25,meteobridge,2013-04-20 09:40:00,
2013-04-20 05:45:00,44.1,43.0,29.79,NNW,336,0.0,0.0,96,0.01,,,0.25,meteobridge,2013-04-20 09:45:00,
2013-04-20 05:50:00,44.1,42.8,29.80,NNW,336,0.0,0.0,95,0.00,,,0.25,meteobridge,2013-04-20 09:50:00,
2013-04-20 05:55:00,43.9,42.8,29.81,NNW,336,0.0,0.0,96,0.00,,,0.25,meteobridge,2013-04-20 09:55:00,
2013-04-20 06:01:00,43.9,42.8,29.81,NNW,336,0.0,0.0,96,0.00,,,0.25,meteobridge,2013-04-20 10:01:00,
2013-04-20 06:06:00,43.9,42.8,29.82,NNW,336,0.0,0.0,96,0.00,,,0.25,meteobridge,2013-04-20 10:06:00,
2013-04-20 06:11:00,43.7,42.6,29.82,NNW,346,0.0,2.9,96,0.00,,,0.25,meteobridge,2013-04-20 10:11:00,
2013-04-20 06:16:00,43.5,42.3,29.82,NW,326,0.9,0.9,95,0.00,,,0.25,meteobridge,2013-04-20 10:16:00,
2013-04-20 06:21:00,43.3,42.1,29.83,NW,314,0.0,2.9,95,0.00,,,0.25,meteobridge,2013-04-20 10:21:00,
2013-04-20 06:27:00,43.2,41.9,29.84,NW,307,0.0,0.0,95,0.00,,,0.25,meteobridge,2013-04-20 10:27:00,
2013-04-20 06:32:00,43.2,42.1,29.83,NW,314,0.0,2.9,96,0.00,,,0.25,meteobridge,2013-04-20 10:32:00,
2013-04-20 06:37:00,43.0,41.7,29.84,NW,313,0.9,4.0,95,0.00,,,0.25,meteobridge,2013-04-20 10:37:00,
2013-04-20 06:43:00,42.8,41.5,29.85,WNW,295,0.9,0.9,95,0.00,,,0.25,meteobridge,2013-04-20 10:43:00,
2013-04-20 06:48:00,42.6,41.4,29.85,NNW,340,0.9,0.9,95,0.00,,,0.25,meteobridge,2013-04-20 10:48:00,
2013-04-20 06:53:00,42.6,41.5,29.86,NNW,335,0.0,0.9,96,0.01,,,0.26,meteobridge,2013-04-20 10:53:00,
2013-04-20 06:59:00,42.6,41.5,29.86,WNW,294,0.0,0.0,96,0.01,,,0.26,meteobridge,2013-04-20 10:59:00,
2013-04-20 07:04:00,42.6,41.5,29.85,WNW,294,0.0,0.0,96,0.01,,,0.26,meteobridge,2013-04-20 11:04:00,
2013-04-20 07:09:00,42.6,41.5,29.85,WNW,295,0.0,0.0,96,0.01,,,0.26,meteobridge,2013-04-20 11:09:00,
2013-04-20 07:14:00,42.8,42.1,29.85,WNW,295,0.0,0.0,97,0.01,,,0.26,meteobridge,2013-04-20 11:14:00,
2013-04-20 07:19:00,42.8,42.1,29.86,WNW,295,0.0,0.0,97,0.01,,,0.26,meteobridge,2013-04-20 11:19:00,
2013-04-20 07:25:00,43.0,42.3,29.86,WNW,295,0.0,0.9,97,0.01,,,0.26,meteobridge,2013-04-20 11:25:00,
2013-04-20 07:30:00,43.0,42.3,29.86,WNW,295,0.0,0.9,97,0.01,,,0.26,meteobridge,2013-04-20 11:30:00,
2013-04-20 07:36:00,43.2,42.4,29.86,WNW,289,0.0,0.9,97,0.01,,,0.26,meteobridge,2013-04-20 11:36:00,
2013-04-20 07:41:00,43.2,42.1,29.86,West,279,0.9,2.0,96,0.01,,,0.26,meteobridge,2013-04-20 11:41:00,
2013-04-20 07:46:00,43.2,42.1,29.85,NNW,339,0.0,0.9,96,0.01,,,0.26,meteobridge,2013-04-20 11:46:00,
2013-04-20 07:51:00,43.2,42.1,29.86,NNW,339,0.0,0.9,96,0.00,,,0.26,meteobridge,2013-04-20 11:51:00,
2013-04-20 07:56:00,43.2,42.1,29.86,NW,304,0.0,0.9,96,0.00,,,0.26,meteobridge,2013-04-20 11:56:00,
2013-04-20 08:02:00,43.2,42.1,29.86,WNW,294,0.9,0.9,96,0.00,,,0.26,meteobridge,2013-04-20 12:02:00,
2013-04-20 08:07:00,43.3,42.1,29.86,WNW,294,0.0,0.9,95,0.00,,,0.26,meteobridge,2013-04-20 12:07:00,
2013-04-20 08:12:00,43.3,42.3,29.86,WNW,294,0.0,0.9,96,0.00,,,0.26,meteobridge,2013-04-20 12:12:00,
2013-04-20 08:17:00,43.5,42.4,29.86,WNW,294,0.0,0.0,96,0.00,,,0.26,meteobridge,2013-04-20 12:17:00,
2013-04-20 08:22:00,43.7,42.6,29.86,WNW,294,0.0,0.0,96,0.00,,,0.26,meteobridge,2013-04-20 12:22:00,
2013-04-20 08:27:00,43.9,42.8,29.87,WNW,294,0.0,0.0,96,0.00,,,0.26,meteobridge,2013-04-20 12:27:00,
2013-04-20 08:33:00,43.9,42.8,29.87,WNW,294,0.9,0.9,96,0.00,,,0.26,meteobridge,2013-04-20 12:33:00,
2013-04-20 08:38:00,44.1,43.0,29.87,WNW,296,0.0,2.0,96,0.00,,,0.26,meteobridge,2013-04-20 12:38:00,
2013-04-20 08:43:00,44.2,43.2,29.86,NW,318,0.0,0.9,96,0.00,,,0.26,meteobridge,2013-04-20 12:43:00,
2013-04-20 08:48:00,44.4,43.2,29.87,WNW,296,0.9,0.9,95,0.00,,,0.26,meteobridge,2013-04-20 12:48:00,
2013-04-20 08:53:00,44.8,43.5,29.86,WNW,290,0.9,0.9,95,0.00,,,0.26,meteobridge,2013-04-20 12:53:00,
2013-04-20 08:59:00,45.0,43.3,29.86,NW,323,0.9,2.0,94,0.00,,,0.26,meteobridge,2013-04-20 12:59:00,
2013-04-20 09:04:00,45.1,43.5,29.86,WNW,294,0.0,2.0,94,0.00,,,0.26,meteobridge,2013-04-20 13:04:00,
2013-04-20 09:09:00,45.5,43.3,29.86,NW,326,0.0,2.9,92,0.00,,,0.26,meteobridge,2013-04-20 13:09:00,
2013-04-20 09:15:00,45.9,43.7,29.85,WNW,287,0.0,0.9,92,0.00,,,0.26,meteobridge,2013-04-20 13:15:00,
2013-04-20 09:20:00,46.0,43.5,29.86,WNW,290,0.9,0.9,91,0.00,,,0.26,meteobridge,2013-04-20 13:20:00,
2013-04-20 09:25:00,46.4,42.8,29.86,WNW,293,2.0,6.0,87,0.00,,,0.26,meteobridge,2013-04-20 13:25:00,
2013-04-20 09:30:00,46.8,42.4,29.87,West,267,4.0,6.0,85,0.00,,,0.26,meteobridge,2013-04-20 13:30:00,
2013-04-20 09:36:00,47.1,41.5,29.87,NNW,336,2.0,2.9,81,0.00,,,0.26,meteobridge,2013-04-20 13:36:00,
2013-04-20 09:41:00,47.7,39.0,29.87,West,270,2.9,8.1,72,0.00,,,0.26,meteobridge,2013-04-20 13:41:00,
2013-04-20 09:46:00,47.8,37.0,29.88,NW,304,4.0,8.9,66,0.00,,,0.26,meteobridge,2013-04-20 13:46:00,
2013-04-20 09:51:00,47.8,37.8,29.88,WNW,284,4.0,8.1,68,0.00,,,0.26,meteobridge,2013-04-20 13:51:00,
2013-04-20 09:56:00,48.2,37.8,29.88,West,269,2.0,4.9,67,0.00,,,0.26,meteobridge,2013-04-20 13:56:00,
2013-04-20 10:01:00,48.4,37.6,29.89,NNW,348,2.9,6.9,66,0.00,,,0.26,meteobridge,2013-04-20 14:01:00,
2013-04-20 10:07:00,48.4,36.7,29.89,NW,310,0.9,6.0,64,0.00,,,0.26,meteobridge,2013-04-20 14:07:00,
2013-04-20 10:12:00,48.4,37.9,29.90,NW,319,4.0,4.0,67,0.00,,,0.26,meteobridge,2013-04-20 14:12:00,
2013-04-20 10:17:00,48.6,37.4,29.90,WNW,286,2.9,4.9,65,0.00,,,0.26,meteobridge,2013-04-20 14:17:00,
2013-04-20 10:22:00,48.7,36.7,29.91,WNW,285,2.0,8.9,63,0.00,,,0.26,meteobridge,2013-04-20 14:22:00,
2013-04-20 10:27:00,48.7,36.0,29.92,West,276,2.9,4.9,61,0.00,,,0.26,meteobridge,2013-04-20 14:27:00,
2013-04-20 10:33:00,48.9,36.9,29.92,SW,215,6.0,8.9,63,0.00,,,0.26,meteobridge,2013-04-20 14:33:00,
2013-04-20 10:38:00,49.3,36.0,29.93,West,277,2.0,6.9,60,0.00,,,0.26,meteobridge,2013-04-20 14:38:00,
2013-04-20 10:43:00,49.3,36.0,29.93,West,275,4.0,6.9,60,0.00,,,0.26,meteobridge,2013-04-20 14:43:00,
2013-04-20 10:48:00,49.5,36.1,29.93,South,188,4.0,6.0,60,0.00,,,0.26,meteobridge,2013-04-20 14:48:00,
2013-04-20 10:53:00,49.5,36.1,29.93,WNW,283,4.9,8.9,60,0.00,,,0.26,meteobridge,2013-04-20 14:53:00,
2013-04-20 10:58:00,49.6,36.3,29.93,NNW,345,4.0,4.9,60,0.00,,,0.26,meteobridge,2013-04-20 14:58:00,
2013-04-20 11:03:00,49.8,35.2,29.93,West,279,0.9,8.9,57,0.00,,,0.26,meteobridge,2013-04-20 15:03:00,
2013-04-20 11:09:00,49.8,34.3,29.94,NNW,330,8.9,8.9,55,0.00,,,0.26,meteobridge,2013-04-20 15:09:00,
2013-04-20 11:14:00,50.2,31.8,29.94,NW,323,10.1,10.1,49,0.00,,,0.26,meteobridge,2013-04-20 15:14:00,
2013-04-20 11:19:00,50.2,31.8,29.94,NW,318,2.9,6.0,49,0.00,,,0.26,meteobridge,2013-04-20 15:19:00,
2013-04-20 11:24:00,50.4,32.4,29.94,WNW,288,2.0,6.0,50,0.00,,,0.26,meteobridge,2013-04-20 15:24:00,
2013-04-20 11:29:00,50.5,32.0,29.94,NW,319,4.0,13.0,49,0.00,,,0.26,meteobridge,2013-04-20 15:29:00,
2013-04-20 11:34:00,50.5,30.6,29.95,West,272,4.0,6.0,46,0.00,,,0.26,meteobridge,2013-04-20 15:34:00,
2013-04-20 11:40:00,50.4,28.8,29.95,West,278,2.9,4.9,43,0.00,,,0.26,meteobridge,2013-04-20 15:40:00,
2013-04-20 11:45:00,50.2,29.1,29.95,NW,315,2.9,4.9,44,0.00,,,0.26,meteobridge,2013-04-20 15:45:00,
2013-04-20 11:50:00,50.2,30.7,29.95,West,279,2.9,4.9,47,0.00,,,0.26,meteobridge,2013-04-20 15:50:00,
2013-04-20 11:55:00,50.4,30.9,29.95,WNW,288,4.9,6.0,47,0.00,,,0.26,meteobridge,2013-04-20 15:55:00,
2013-04-20 12:00:00,50.2,30.2,29.95,WNW,284,4.0,8.1,46,0.00,,,0.26,meteobridge,2013-04-20 16:00:00,
2013-04-20 12:05:00,50.2,27.3,29.96,WNW,284,4.9,8.9,41,0.00,,,0.26,meteobridge,2013-04-20 16:05:00,
2013-04-20 12:10:00,49.8,28.8,29.96,NW,304,2.0,6.0,44,0.00,,,0.26,meteobridge,2013-04-20 16:10:00,
2013-04-20 12:15:00,49.8,27.7,29.96,NNW,342,6.9,6.9,42,0.00,,,0.26,meteobridge,2013-04-20 16:15:00,
2013-04-20 12:21:00,49.6,27.5,29.96,WNW,288,2.9,6.0,42,0.00,,,0.26,meteobridge,2013-04-20 16:21:00,
2013-04-20 12:26:00,49.8,29.3,29.96,WNW,286,0.9,2.9,45,0.00,,,0.26,meteobridge,2013-04-20 16:26:00,
2013-04-20 12:31:00,50.4,30.9,29.95,SSW,209,0.9,8.9,47,0.00,,,0.26,meteobridge,2013-04-20 16:31:00,
2013-04-20 12:36:00,50.5,30.0,29.96,NW,313,6.0,6.0,45,0.00,,,0.26,meteobridge,2013-04-20 16:36:00,
2013-04-20 12:41:00,50.9,30.9,29.95,WNW,291,2.0,6.0,46,0.00,,,0.26,meteobridge,2013-04-20 16:41:00,
2013-04-20 12:46:00,50.7,29.7,29.95,SSW,212,0.9,4.0,44,0.00,,,0.26,meteobridge,2013-04-20 16:46:00,
2013-04-20 12:51:00,50.7,30.7,29.95,NW,312,2.9,4.0,46,0.00,,,0.26,meteobridge,2013-04-20 16:51:00,
2013-04-20 12:56:00,50.9,30.9,29.95,West,261,0.9,6.9,46,0.00,,,0.26,meteobridge,2013-04-20 16:56:00,
2013-04-20 13:02:00,51.1,31.6,29.94,WNW,298,4.0,6.9,47,0.00,,,0.26,meteobridge,2013-04-20 17:02:00,
2013-04-20 13:07:00,51.3,31.1,29.94,NW,310,2.0,4.0,46,0.00,,,0.26,meteobridge,2013-04-20 17:07:00,
2013-04-20 13:12:00,51.4,32.4,29.94,NW,313,4.9,6.9,48,0.00,,,0.26,meteobridge,2013-04-20 17:12:00,
2013-04-20 13:17:00,51.8,31.1,29.94,NW,318,2.9,4.9,45,0.00,,,0.26,meteobridge,2013-04-20 17:17:00,
2013-04-20 13:22:00,52.3,31.6,29.95,NW,305,4.9,8.1,45,0.00,,,0.26,meteobridge,2013-04-20 17:22:00,
2013-04-20 13:27:00,52.7,31.5,29.95,WNW,291,4.0,6.9,44,0.00,,,0.26,meteobridge,2013-04-20 17:27:00,
2013-04-20 13:33:00,53.1,31.1,29.95,WNW,298,6.0,6.9,43,0.00,,,0.26,meteobridge,2013-04-20 17:33:00,
2013-04-20 13:38:00,53.4,31.5,29.95,WNW,286,2.0,6.0,43,0.00,,,0.26,meteobridge,2013-04-20 17:38:00,
2013-04-20 13:43:00,54.3,32.4,29.95,NW,306,2.0,4.9,43,0.00,,,0.26,meteobridge,2013-04-20 17:43:00,
2013-04-20 13:48:00,55.2,33.1,29.95,SW,232,0.9,4.9,43,0.00,,,0.26,meteobridge,2013-04-20 17:48:00,
2013-04-20 13:53:00,55.6,32.2,29.94,SSW,195,6.9,8.1,41,0.00,,,0.26,meteobridge,2013-04-20 17:53:00,
2013-04-20 13:59:00,55.4,31.5,29.95,WSW,257,2.0,2.9,40,0.00,,,0.26,meteobridge,2013-04-20 17:59:00,
2013-04-20 14:04:00,55.2,32.0,29.95,West,265,4.9,8.1,41,0.00,,,0.26,meteobridge,2013-04-20 18:04:00,
2013-04-20 14:09:00,55.0,31.8,29.95,NW,316,4.9,8.9,41,0.00,,,0.26,meteobridge,2013-04-20 18:09:00,
2013-04-20 14:14:00,54.9,31.6,29.95,North,355,4.0,4.9,41,0.00,,,0.26,meteobridge,2013-04-20 18:14:00,
2013-04-20 14:19:00,54.9,31.6,29.94,West,263,2.9,4.0,41,0.00,,,0.26,meteobridge,2013-04-20 18:19:00,
2013-04-20 14:25:00,55.2,33.1,29.95,North,5,4.9,8.1,43,0.00,,,0.26,meteobridge,2013-04-20 18:25:00,
2013-04-20 14:30:00,56.1,30.2,29.95,WNW,298,2.9,10.1,37,0.00,,,0.26,meteobridge,2013-04-20 18:30:00,
2013-04-20 14:35:00,56.8,32.7,29.94,NW,306,4.9,8.1,40,0.00,,,0.26,meteobridge,2013-04-20 18:35:00,
2013-04-20 14:40:00,57.7,31.6,29.95,SSW,204,8.1,8.9,37,0.00,,,0.26,meteobridge,2013-04-20 18:40:00,
2013-04-20 14:45:00,58.1,30.6,29.95,NNW,331,6.0,8.1,35,0.00,,,0.26,meteobridge,2013-04-20 18:45:00,
2013-04-20 14:50:00,58.3,32.2,29.95,NW,306,0.9,6.9,37,0.00,,,0.26,meteobridge,2013-04-20 18:50:00,
2013-04-20 14:55:00,58.6,31.1,29.95,West,263,2.9,6.9,35,0.00,,,0.26,meteobridge,2013-04-20 18:55:00,
2013-04-20 15:00:00,58.6,30.4,29.95,SE,126,2.9,16.1,34,0.00,,,0.26,meteobridge,2013-04-20 19:00:00,
2013-04-20 15:06:00,58.5,32.4,29.95,NNW,344,4.0,11.0,37,0.00,,,0.26,meteobridge,2013-04-20 19:06:00,
2013-04-20 15:11:00,58.6,29.7,29.95,WNW,302,2.9,6.0,33,0.00,,,0.26,meteobridge,2013-04-20 19:11:00,
2013-04-20 15:16:00,58.6,31.1,29.95,SW,222,2.0,10.1,35,0.00,,,0.26,meteobridge,2013-04-20 19:16:00,
2013-04-20 15:21:00,58.5,29.5,29.96,WNW,303,2.0,6.9,33,0.00,,,0.26,meteobridge,2013-04-20 19:21:00,
2013-04-20 15:26:00,58.5,31.6,29.96,WNW,282,2.9,4.9,36,0.00,,,0.26,meteobridge,2013-04-20 19:26:00,
2013-04-20 15:32:00,58.6,30.4,29.96,NNW,342,2.9,6.9,34,0.00,,,0.26,meteobridge,2013-04-20 19:32:00,
2013-04-20 15:37:00,58.5,31.6,29.96,South,184,4.9,6.9,36,0.00,,,0.26,meteobridge,2013-04-20 19:37:00,
2013-04-20 15:42:00,57.9,30.4,29.96,SW,225,2.0,8.9,35,0.00,,,0.26,meteobridge,2013-04-20 19:42:00,
2013-04-20 15:47:00,57.2,30.6,29.96,SSW,197,2.0,6.9,36,0.00,,,0.26,meteobridge,2013-04-20 19:47:00,
2013-04-20 15:53:00,56.8,29.5,29.96,NW,317,2.0,6.9,35,0.00,,,0.26,meteobridge,2013-04-20 19:53:00,
2013-04-20 15:58:00,56.7,27.9,29.97,West,276,4.9,8.9,33,0.00,,,0.26,meteobridge,2013-04-20 19:58:00,
2013-04-20 16:03:00,56.1,29.5,29.97,WNW,303,2.0,6.0,36,0.00,,,0.26,meteobridge,2013-04-20 20:03:00,
2013-04-20 16:08:00,56.3,29.7,29.97,WNW,294,4.0,4.9,36,0.00,,,0.26,meteobridge,2013-04-20 20:08:00,
2013-04-20 16:13:00,56.7,30.0,29.98,NW,304,8.1,8.1,36,0.00,,,0.26,meteobridge,2013-04-20 20:13:00,
2013-04-20 16:18:00,56.7,28.6,29.98,NW,322,2.9,8.1,34,0.00,,,0.26,meteobridge,2013-04-20 20:18:00,
2013-04-20 16:23:00,56.8,30.2,29.98,WNW,292,0.9,4.0,36,0.00,,,0.26,meteobridge,2013-04-20 20:23:00,
2013-04-20 16:29:00,56.8,28.8,29.98,NW,306,6.0,6.0,34,0.00,,,0.26,meteobridge,2013-04-20 20:29:00,
2013-04-20 16:34:00,56.8,28.0,29.99,West,277,6.0,6.9,33,0.00,,,0.26,meteobridge,2013-04-20 20:34:00,
2013-04-20 16:39:00,57.0,28.2,29.99,SSW,198,8.1,8.9,33,0.00,,,0.26,meteobridge,2013-04-20 20:39:00,
2013-04-20 16:44:00,57.0,29.7,29.99,WNW,285,4.9,4.9,35,0.00,,,0.26,meteobridge,2013-04-20 20:44:00,
2013-04-20 16:49:00,57.4,28.6,29.99,SSW,208,2.9,11.0,33,0.00,,,0.26,meteobridge,2013-04-20 20:49:00,
2013-04-20 16:54:00,57.7,31.6,29.99,SSW,196,4.0,8.9,37,0.00,,,0.26,meteobridge,2013-04-20 20:54:00,
2013-04-20 17:00:00,57.9,29.7,29.99,WSW,252,2.9,6.0,34,0.00,,,0.26,meteobridge,2013-04-20 21:00:00,
2013-04-20 17:05:00,57.9,29.7,30.00,West,268,2.9,4.9,34,0.00,,,0.26,meteobridge,2013-04-20 21:05:00,
2013-04-20 17:10:00,58.1,29.1,30.01,WNW,288,4.9,8.1,33,0.00,,,0.26,meteobridge,2013-04-20 21:10:00,
2013-04-20 17:15:00,57.9,28.2,30.01,NW,317,4.0,8.1,32,0.00,,,0.26,meteobridge,2013-04-20 21:15:00,
2013-04-20 17:20:00,57.9,27.5,30.01,WNW,289,2.9,8.1,31,0.00,,,0.26,meteobridge,2013-04-20 21:20:00,
2013-04-20 17:25:00,57.9,27.5,30.01,West,267,2.9,6.9,31,0.00,,,0.26,meteobridge,2013-04-20 21:25:00,
2013-04-20 17:30:00,58.3,27.9,30.01,NW,320,2.9,6.9,31,0.00,,,0.26,meteobridge,2013-04-20 21:30:00,
2013-04-20 17:35:00,58.5,28.8,30.01,WNW,293,2.0,6.0,32,0.00,,,0.26,meteobridge,2013-04-20 21:35:00,
2013-04-20 17:41:00,58.8,28.2,30.01,WNW,294,0.9,2.9,31,0.00,,,0.26,meteobridge,2013-04-20 21:41:00,
2013-04-20 17:46:00,59.4,28.8,30.02,WNW,290,2.0,4.9,31,0.00,,,0.26,meteobridge,2013-04-20 21:46:00,
2013-04-20 17:51:00,59.4,27.9,30.02,NW,308,2.9,4.0,30,0.00,,,0.26,meteobridge,2013-04-20 21:51:00,
2013-04-20 17:56:00,59.2,27.7,30.02,WNW,286,2.9,4.0,30,0.00,,,0.26,meteobridge,2013-04-20 21:56:00,
2013-04-20 18:01:00,58.6,27.3,30.03,NW,325,4.0,6.9,30,0.00,,,0.26,meteobridge,2013-04-20 22:01:00,
2013-04-20 18:06:00,58.3,26.2,30.03,WNW,283,2.0,6.0,29,0.00,,,0.26,meteobridge,2013-04-20 22:06:00,
2013-04-20 18:12:00,57.9,28.2,30.04,NW,313,4.9,4.9,32,0.00,,,0.26,meteobridge,2013-04-20 22:12:00,
2013-04-20 18:17:00,57.6,26.4,30.04,NW,326,4.0,4.9,30,0.00,,,0.26,meteobridge,2013-04-20 22:17:00,
2013-04-20 18:22:00,57.2,26.1,30.05,NW,314,4.0,4.9,30,0.00,,,0.26,meteobridge,2013-04-20 22:22:00,
2013-04-20 18:27:00,56.8,25.7,30.05,West,269,2.0,4.0,30,0.00,,,0.26,meteobridge,2013-04-20 22:27:00,
2013-04-20 18:32:00,56.1,25.9,30.05,NNW,346,4.0,6.0,31,0.00,,,0.26,meteobridge,2013-04-20 22:32:00,
2013-04-20 18:38:00,55.8,24.8,30.06,WNW,282,2.9,6.9,30,0.00,,,0.26,meteobridge,2013-04-20 22:38:00,
2013-04-20 18:43:00,55.6,25.3,30.06,West,267,2.9,2.9,31,0.00,,,0.26,meteobridge,2013-04-20 22:43:00,
2013-04-20 18:48:00,55.2,24.3,30.06,WNW,301,2.0,4.9,30,0.00,,,0.26,meteobridge,2013-04-20 22:48:00,
2013-04-20 18:53:00,55.0,25.0,30.06,NW,311,2.0,11.0,31,0.00,,,0.26,meteobridge,2013-04-20 22:53:00,
2013-04-20 18:59:00,55.0,25.0,30.07,NW,317,2.0,4.9,31,0.00,,,0.26,meteobridge,2013-04-20 22:59:00,
2013-04-20 19:04:00,54.7,24.6,30.07,NNW,342,4.0,8.1,31,0.00,,,0.26,meteobridge,2013-04-20 23:04:00,
2013-04-20 19:09:00,54.3,25.2,30.07,North,11,2.9,4.9,32,0.00,,,0.26,meteobridge,2013-04-20 23:09:00,
2013-04-20 19:14:00,54.0,24.8,30.08,NW,325,0.9,4.0,32,0.00,,,0.26,meteobridge,2013-04-20 23:14:00,
2013-04-20 19:19:00,53.6,25.2,30.08,NW,305,0.9,2.9,33,0.00,,,0.26,meteobridge,2013-04-20 23:19:00,
2013-04-20 19:25:00,53.2,24.8,30.09,NW,311,2.9,4.0,33,0.00,,,0.26,meteobridge,2013-04-20 23:25:00,
2013-04-20 19:30:00,52.9,23.9,30.09,WNW,295,2.9,8.1,32,0.00,,,0.26,meteobridge,2013-04-20 23:30:00,
2013-04-20 19:35:00,52.7,23.7,30.09,NNW,336,4.0,4.9,32,0.00,,,0.26,meteobridge,2013-04-20 23:35:00,
2013-04-20 19:40:00,52.3,24.1,30.10,NW,318,2.0,4.9,33,0.00,,,0.26,meteobridge,2013-04-20 23:40:00,
2013-04-20 19:45:00,52.2,24.6,30.10,NNW,333,0.9,4.0,34,0.00,,,0.26,meteobridge,2013-04-20 23:45:00,
2013-04-20 19:51:00,52.0,23.7,30.11,NW,312,2.9,6.0,33,0.00,,,0.26,meteobridge,2013-04-20 23:51:00,
2013-04-20 19:56:00,51.8,25.0,30.11,North,350,0.9,4.0,35,0.00,,,0.26,meteobridge,2013-04-20 23:56:00,
2013-04-20 20:01:00,51.6,24.1,30.11,NW,309,2.0,4.0,34,0.00,,,0.00,meteobridge,2013-04-21 00:01:00,
2013-04-20 20:07:00,51.4,24.6,30.12,NW,317,2.0,2.9,35,0.00,,,0.00,meteobridge,2013-04-21 00:07:00,
2013-04-20 20:12:00,51.3,25.2,30.13,NW,311,4.0,6.0,36,0.00,,,0.00,meteobridge,2013-04-21 00:12:00,
2013-04-20 20:17:00,51.1,24.4,30.13,NW,311,0.9,2.9,35,0.00,,,0.00,meteobridge,2013-04-21 00:17:00,
2013-04-20 20:22:00,50.9,24.8,30.13,North,349,2.0,2.9,36,0.00,,,0.00,meteobridge,2013-04-21 00:22:00,
2013-04-20 20:27:00,50.7,24.1,30.14,NW,310,0.0,2.0,35,0.00,,,0.00,meteobridge,2013-04-21 00:27:00,
2013-04-20 20:33:00,50.5,25.2,30.14,NW,315,0.9,2.0,37,0.00,,,0.00,meteobridge,2013-04-21 00:33:00,
2013-04-20 20:38:00,50.4,25.0,30.15,NNW,333,0.0,4.9,37,0.00,,,0.00,meteobridge,2013-04-21 00:38:00,
2013-04-20 20:43:00,50.2,25.0,30.15,WNW,300,0.0,2.9,37,0.00,,,0.00,meteobridge,2013-04-21 00:43:00,
2013-04-20 20:48:00,50.0,24.1,30.16,NW,310,0.9,2.9,36,0.00,,,0.00,meteobridge,2013-04-21 00:48:00,
2013-04-20 20:54:00,49.8,24.6,30.16,North,351,0.0,2.9,37,0.00,,,0.00,meteobridge,2013-04-21 00:54:00,
2013-04-20 20:59:00,49.6,24.4,30.16,West,272,0.9,2.9,37,0.00,,,0.00,meteobridge,2013-04-21 00:59:00,
2013-04-20 21:04:00,49.5,24.3,30.17,WNW,290,2.0,2.9,37,0.00,,,0.00,meteobridge,2013-04-21 01:04:00,
2013-04-20 21:10:00,49.5,24.3,30.17,North,349,2.9,4.9,37,0.00,,,0.00,meteobridge,2013-04-21 01:10:00,
2013-04-20 21:15:00,49.3,24.1,30.18,WNW,298,0.9,2.9,37,0.00,,,0.00,meteobridge,2013-04-21 01:15:00,
2013-04-20 21:20:00,49.3,24.8,30.19,North,351,2.9,2.9,38,0.00,,,0.00,meteobridge,2013-04-21 01:20:00,
2013-04-20 21:25:00,49.1,24.6,30.19,WNW,285,0.0,2.9,38,0.00,,,0.00,meteobridge,2013-04-21 01:25:00,
2013-04-20 21:31:00,48.9,24.4,30.20,NW,323,2.9,4.0,38,0.00,,,0.00,meteobridge,2013-04-21 01:31:00,
2013-04-20 21:36:00,48.7,24.8,30.20,NNW,332,2.0,4.9,39,0.00,,,0.00,meteobridge,2013-04-21 01:36:00,
2013-04-20 21:41:00,48.6,25.3,30.21,NNW,344,0.9,4.9,40,0.00,,,0.00,meteobridge,2013-04-21 01:41:00,
2013-04-20 21:46:00,48.4,25.2,30.21,WNW,302,2.9,4.0,40,0.00,,,0.00,meteobridge,2013-04-21 01:46:00,
2013-04-20 21:51:00,48.0,26.1,30.22,North,0,4.9,6.0,42,0.00,,,0.00,meteobridge,2013-04-21 01:51:00,
2013-04-20 21:57:00,47.8,26.4,30.22,North,350,2.0,4.0,43,0.00,,,0.00,meteobridge,2013-04-21 01:57:00,
2013-04-20 22:02:00,47.7,25.7,30.22,WNW,298,2.9,4.0,42,0.00,,,0.00,meteobridge,2013-04-21 02:02:00,
2013-04-20 22:07:00,47.5,26.1,30.23,WNW,302,0.0,2.9,43,0.00,,,0.00,meteobridge,2013-04-21 02:07:00,
2013-04-20 22:13:00,47.5,26.1,30.23,NW,307,0.9,4.9,43,0.00,,,0.00,meteobridge,2013-04-21 02:13:00,
2013-04-20 22:18:00,47.3,26.4,30.23,NW,318,2.9,4.0,44,0.00,,,0.00,meteobridge,2013-04-21 02:18:00,
2013-04-20 22:23:00,47.1,26.2,30.23,North,355,4.0,6.9,44,0.00,,,0.00,meteobridge,2013-04-21 02:23:00,
2013-04-20 22:28:00,46.9,26.8,30.23,WNW,289,0.9,2.0,45,0.00,,,0.00,meteobridge,2013-04-21 02:28:00,
2013-04-20 22:33:00,46.9,26.2,30.24,WNW,301,0.9,4.0,44,0.00,,,0.00,meteobridge,2013-04-21 02:33:00,
2013-04-20 22:38:00,46.8,26.1,30.24,NW,306,2.9,4.0,44,0.00,,,0.00,meteobridge,2013-04-21 02:38:00,
2013-04-20 22:44:00,46.6,25.9,30.24,North,5,4.0,4.9,44,0.00,,,0.00,meteobridge,2013-04-21 02:44:00,
2013-04-20 22:49:00,46.4,25.7,30.25,NW,312,2.0,8.1,44,0.00,,,0.00,meteobridge,2013-04-21 02:49:00,
2013-04-20 22:54:00,46.2,26.6,30.25,WNW,300,2.9,4.0,46,0.00,,,0.00,meteobridge,2013-04-21 02:54:00,
2013-04-20 22:59:00,46.0,27.0,30.25,WNW,299,0.0,2.0,47,0.00,,,0.00,meteobridge,2013-04-21 02:59:00,
2013-04-20 23:04:00,45.7,26.6,30.26,NW,310,0.0,2.0,47,0.00,,,0.00,meteobridge,2013-04-21 03:04:00,
2013-04-20 23:09:00,45.3,26.2,30.26,NW,314,2.0,4.0,47,0.00,,,0.00,meteobridge,2013-04-21 03:09:00,
2013-04-20 23:15:00,45.1,25.5,30.27,NW,304,0.9,6.0,46,0.00,,,0.00,meteobridge,2013-04-21 03:15:00,
2013-04-20 23:20:00,45.0,25.3,30.27,North,350,2.0,4.0,46,0.00,,,0.00,meteobridge,2013-04-21 03:20:00,
2013-04-20 23:25:00,44.6,24.6,30.27,WNW,294,0.9,4.0,45,0.00,,,0.00,meteobridge,2013-04-21 03:25:00,
2013-04-20 23:31:00,44.2,24.3,30.28,NW,312,4.0,6.9,45,0.00,,,0.00,meteobridge,2013-04-21 03:31:00,
2013-04-20 23:36:00,44.1,24.1,30.28,NNE,13,2.0,6.9,45,0.00,,,0.00,meteobridge,2013-04-21 03:36:00,
2013-04-20 23:41:00,43.9,26.4,30.28,NE,38,0.9,2.9,50,0.00,,,0.00,meteobridge,2013-04-21 03:41:00,
2013-04-20 23:46:00,43.5,27.1,30.29,NNW,340,2.0,2.0,52,0.00,,,0.00,meteobridge,2013-04-21 03:46:00,
2013-04-20 23:51:00,43.0,27.0,30.29,NE,34,4.9,4.9,53,0.00,,,0.00,meteobridge,2013-04-21 03:51:00,
2013-04-20 23:56:00,42.4,27.0,30.29,NE,36,2.0,2.9,54,0.00,,,0.00,meteobridge,2013-04-21 03:56:00,